Year,Month,Day,Hour,Minute,Value (Times are PST for temperature in C)
2018,11,25,00,00,8.10
2018,11,25,00,01,8.10
2018,11,25,00,02,8.10
2018,11,25,00,03,8.10
2018,11,25,00,04,8.10
2018,11,25,00,05,8.10
2018,11,25,00,06,8.10
2018,11,25,00,07,8.10
2018,11,25,00,08,8.10
2018,11,25,00,09,8.10
2018,11,25,00,10,8.20
2018,11,25,00,11,8.20
2018,11,25,00,12,8.20
2018,11,25,00,13,8.20
2018,11,25,00,14,8.20
2018,11,25,00,15,8.20
2018,11,25,00,16,8.20
2018,11,25,00,17,8.20
2018,11,25,00,18,8.20
2018,11,25,00,19,8.20
2018,11,25,00,20,8.20
2018,11,25,00,21,8.20
2018,11,25,00,22,8.20
2018,11,25,00,23,8.20
2018,11,25,00,24,8.20
2018,11,25,00,25,8.20
2018,11,25,00,26,8.20
2018,11,25,00,27,8.20
2018,11,25,00,28,8.30
2018,11,25,00,29,8.30
2018,11,25,00,30,8.30
2018,11,25,00,31,8.30
2018,11,25,00,32,8.30
2018,11,25,00,33,8.30
2018,11,25,00,34,8.30
2018,11,25,00,35,8.30
2018,11,25,00,36,8.30
2018,11,25,00,37,8.30
2018,11,25,00,38,8.30
2018,11,25,00,39,8.30
2018,11,25,00,40,8.30
2018,11,25,00,41,8.30
2018,11,25,00,42,8.30
2018,11,25,00,43,8.30
2018,11,25,00,44,8.30
2018,11,25,00,45,8.30
2018,11,25,00,46,8.30
2018,11,25,00,47,8.30
2018,11,25,00,48,8.30
2018,11,25,00,49,8.30
2018,11,25,00,50,8.30
2018,11,25,00,51,8.30
2018,11,25,00,52,8.30
2018,11,25,00,53,8.30
2018,11,25,00,54,8.30
2018,11,25,00,55,8.30
2018,11,25,00,56,8.30
2018,11,25,00,57,8.30
2018,11,25,00,58,8.30
2018,11,25,00,59,8.30
2018,11,25,01,00,8.30
2018,11,25,01,01,8.30
2018,11,25,01,02,8.30
2018,11,25,01,03,8.30
2018,11,25,01,04,8.30
2018,11,25,01,05,8.30
2018,11,25,01,06,8.30
2018,11,25,01,07,8.30
2018,11,25,01,08,8.30
2018,11,25,01,09,8.30
2018,11,25,01,10,8.30
2018,11,25,01,11,8.30
2018,11,25,01,12,8.30
2018,11,25,01,13,8.30
2018,11,25,01,14,8.30
2018,11,25,01,15,8.30
2018,11,25,01,16,8.30
2018,11,25,01,17,8.30
2018,11,25,01,18,8.30
2018,11,25,01,19,8.30
2018,11,25,01,20,8.30
2018,11,25,01,21,8.30
2018,11,25,01,22,8.30
2018,11,25,01,23,8.30
2018,11,25,01,24,8.30
2018,11,25,01,25,8.30
2018,11,25,01,26,8.30
2018,11,25,01,27,8.30
2018,11,25,01,28,8.30
2018,11,25,01,29,8.30
2018,11,25,01,30,8.30
2018,11,25,01,31,8.30
2018,11,25,01,32,8.30
2018,11,25,01,33,8.30
2018,11,25,01,34,8.30
2018,11,25,01,35,8.30
2018,11,25,01,36,8.30
2018,11,25,01,37,8.30
2018,11,25,01,38,8.30
2018,11,25,01,39,8.30
2018,11,25,01,40,8.30
2018,11,25,01,41,8.30
2018,11,25,01,42,8.30
2018,11,25,01,43,8.30
2018,11,25,01,44,8.30
2018,11,25,01,45,8.30
2018,11,25,01,46,8.30
2018,11,25,01,47,8.30
2018,11,25,01,48,8.30
2018,11,25,01,49,8.30
2018,11,25,01,50,8.30
2018,11,25,01,51,8.30
2018,11,25,01,52,8.30
2018,11,25,01,53,8.30
2018,11,25,01,54,8.30
2018,11,25,01,55,8.30
2018,11,25,01,56,8.30
2018,11,25,01,57,8.30
2018,11,25,01,58,8.30
2018,11,25,01,59,8.30
2018,11,25,02,00,8.30
2018,11,25,02,01,8.30
2018,11,25,02,02,8.30
2018,11,25,02,03,8.30
2018,11,25,02,04,8.30
2018,11,25,02,05,8.30
2018,11,25,02,06,8.30
2018,11,25,02,07,8.30
2018,11,25,02,08,8.30
2018,11,25,02,09,8.30
2018,11,25,02,10,8.30
2018,11,25,02,11,8.30
2018,11,25,02,12,8.30
2018,11,25,02,13,8.30
2018,11,25,02,14,8.30
2018,11,25,02,15,8.30
2018,11,25,02,16,8.30
2018,11,25,02,17,8.30
2018,11,25,02,18,8.30
2018,11,25,02,19,8.30
2018,11,25,02,20,8.30
2018,11,25,02,21,8.30
2018,11,25,08,18,7.40
2018,11,25,08,19,7.40
2018,11,25,08,20,7.40
2018,11,25,08,21,7.50
2018,11,25,08,22,7.50
2018,11,25,08,23,7.50
2018,11,25,08,24,7.50
2018,11,25,08,25,7.50
2018,11,25,08,26,7.50
2018,11,25,08,27,7.50
2018,11,25,08,28,7.50
2018,11,25,08,29,7.50
2018,11,25,08,30,7.50
2018,11,25,08,31,7.50
2018,11,25,08,32,7.50
2018,11,25,08,33,7.50
2018,11,25,08,34,7.60
2018,11,25,08,35,7.60
2018,11,25,08,36,7.60
2018,11,25,08,37,7.60
2018,11,25,08,38,7.60
2018,11,25,08,39,7.60
2018,11,25,08,40,7.60
2018,11,25,08,41,7.60
2018,11,25,08,42,7.60
2018,11,25,08,43,7.60
2018,11,25,08,44,7.60
2018,11,25,08,45,7.60
2018,11,25,08,46,7.60
2018,11,25,08,47,7.70
2018,11,25,08,48,7.70
2018,11,25,08,49,7.70
2018,11,25,08,50,7.70
2018,11,25,08,51,7.70
2018,11,25,08,52,7.70
2018,11,25,08,53,7.70
2018,11,25,08,54,7.70
2018,11,25,08,55,7.70
2018,11,25,08,56,7.70
2018,11,25,08,57,7.70
2018,11,25,08,58,7.80
2018,11,25,08,59,7.80
2018,11,25,09,00,7.80
2018,11,25,09,01,7.80
2018,11,25,09,02,7.80
2018,11,25,09,03,7.80
2018,11,25,09,04,7.80
2018,11,25,09,05,7.80
2018,11,25,09,06,7.80
2018,11,25,09,07,7.80
2018,11,25,09,08,7.90
2018,11,25,09,09,7.90
2018,11,25,09,10,7.90
2018,11,25,09,11,7.90
2018,11,25,09,12,7.90
2018,11,25,09,13,7.90
2018,11,25,09,14,7.90
2018,11,25,09,15,7.90
2018,11,25,09,16,7.90
2018,11,25,09,17,7.90
2018,11,25,09,18,7.90
2018,11,25,09,19,7.90
2018,11,25,09,20,7.90
2018,11,25,09,21,7.90
2018,11,25,09,22,8.00
2018,11,25,09,23,8.00
2018,11,25,09,24,8.00
2018,11,25,09,25,8.00
2018,11,25,09,26,8.00
2018,11,25,09,27,8.00
2018,11,25,09,28,8.00
2018,11,25,09,29,8.00
2018,11,25,09,30,8.10
2018,11,25,09,31,8.10
2018,11,25,09,32,8.10
2018,11,25,09,33,8.10
2018,11,25,09,34,8.10
2018,11,25,09,35,8.10
2018,11,25,09,36,8.10
2018,11,25,09,37,8.10
2018,11,25,09,38,8.10
2018,11,25,09,39,8.10
2018,11,25,09,40,8.10
2018,11,25,09,41,8.10
2018,11,25,09,42,8.10
2018,11,25,09,43,8.10
2018,11,25,09,44,8.20
2018,11,25,09,45,8.20
2018,11,25,09,46,8.20
2018,11,25,09,47,8.20
2018,11,25,09,48,8.20
2018,11,25,09,49,8.20
2018,11,25,09,50,8.20
2018,11,25,09,51,8.20
2018,11,25,09,52,8.20
2018,11,25,09,53,8.10
2018,11,25,09,54,8.20
2018,11,25,09,55,8.20
2018,11,25,09,56,8.20
2018,11,25,09,57,8.20
2018,11,25,09,58,8.20
2018,11,25,09,59,8.20
2018,11,25,10,00,8.20
2018,11,25,10,01,8.20
2018,11,25,10,02,8.20
2018,11,25,10,03,8.20
2018,11,25,10,04,8.20
2018,11,25,10,05,8.20
2018,11,25,10,06,8.20
2018,11,25,10,07,8.20
2018,11,25,10,08,8.20
2018,11,25,10,09,8.20
2018,11,25,10,10,8.20
2018,11,25,10,11,8.20
2018,11,25,10,12,8.20
2018,11,25,10,13,8.20
2018,11,25,10,14,8.30
2018,11,25,10,15,8.30
2018,11,25,10,16,8.30
2018,11,25,10,17,8.30
2018,11,25,10,18,8.30
2018,11,25,10,19,8.30
2018,11,25,10,20,8.30
2018,11,25,10,21,8.30
2018,11,25,10,22,8.30
2018,11,25,10,23,8.30
2018,11,25,10,24,8.30
2018,11,25,10,25,8.30
2018,11,25,10,26,8.30
2018,11,25,10,27,8.40
2018,11,25,10,28,8.40
2018,11,25,10,29,8.40
2018,11,25,10,30,8.40
2018,11,25,10,31,8.40
2018,11,25,10,32,8.40
2018,11,25,10,33,8.40
2018,11,25,10,34,8.40
2018,11,25,10,35,8.40
2018,11,25,10,36,8.40
2018,11,25,10,37,8.40
2018,11,25,10,38,8.40
2018,11,25,10,39,8.40
2018,11,25,10,40,8.40
2018,11,25,10,41,8.40
2018,11,25,10,42,8.50
2018,11,25,10,43,8.50
2018,11,25,10,44,8.50
2018,11,25,10,45,8.50
2018,11,25,10,46,8.50
2018,11,25,10,47,8.50
2018,11,25,10,48,8.50
2018,11,25,10,49,8.50
2018,11,25,10,50,8.50
2018,11,25,10,51,8.50
2018,11,25,10,52,8.50
2018,11,25,10,53,8.50
2018,11,25,10,54,8.50
2018,11,25,10,55,8.50
2018,11,25,10,56,8.60
2018,11,25,10,57,8.60
2018,11,25,10,58,8.60
2018,11,25,10,59,8.60
2018,11,25,11,00,8.60
2018,11,25,11,01,8.60
2018,11,25,11,02,8.60
2018,11,25,11,03,8.60
2018,11,25,11,04,8.60
2018,11,25,11,05,8.60
2018,11,25,11,06,8.60
2018,11,25,11,07,8.60
2018,11,25,11,08,8.60
2018,11,25,11,09,8.60
2018,11,25,11,10,8.60
2018,11,25,11,11,8.60
2018,11,25,11,12,8.70
2018,11,25,11,13,8.60
2018,11,25,11,14,8.60
2018,11,25,11,15,8.60
2018,11,25,11,16,8.70
2018,11,25,11,17,8.70
2018,11,25,11,18,8.70
2018,11,25,11,19,8.70
2018,11,25,11,20,8.70
2018,11,25,11,21,8.70
2018,11,25,11,22,8.70
2018,11,25,11,23,8.70
2018,11,25,11,24,8.70
2018,11,25,11,25,8.70
2018,11,25,11,26,8.70
2018,11,25,11,27,8.70
2018,11,25,11,28,8.70
2018,11,25,11,29,8.70
2018,11,25,11,30,8.70
2018,11,25,11,31,8.70
2018,11,25,11,32,8.70
2018,11,25,11,33,8.70
2018,11,25,11,34,8.70
2018,11,25,11,35,8.70
2018,11,25,11,36,8.70
2018,11,25,11,37,8.70
2018,11,25,11,38,8.70
2018,11,25,11,39,8.70
2018,11,25,11,40,8.70
2018,11,25,11,41,8.70
2018,11,25,11,42,8.70
2018,11,25,11,43,8.70
2018,11,25,11,44,8.70
2018,11,25,11,45,8.70
2018,11,25,11,46,8.70
2018,11,25,11,47,8.70
2018,11,25,11,48,8.70
2018,11,25,11,49,8.70
2018,11,25,11,50,8.80
2018,11,25,11,51,8.70
2018,11,25,11,52,8.70
2018,11,25,11,53,8.80
2018,11,25,11,54,8.80
2018,11,25,11,55,8.80
2018,11,25,11,56,8.80
2018,11,25,11,57,8.80
2018,11,25,11,58,8.80
2018,11,25,11,59,8.80
2018,11,25,12,00,8.80
2018,11,25,12,01,8.80
2018,11,25,12,02,8.80
2018,11,25,12,03,8.80
2018,11,25,12,04,8.80
2018,11,25,12,05,8.80
2018,11,25,12,06,8.80
2018,11,25,12,07,8.80
2018,11,25,12,08,8.80
2018,11,25,12,09,8.80
2018,11,25,12,10,8.80
2018,11,25,12,11,8.80
2018,11,25,12,12,8.80
2018,11,25,12,13,8.80
2018,11,25,12,14,8.80
2018,11,25,12,15,8.80
2018,11,25,12,16,8.80
2018,11,25,12,17,8.80
2018,11,25,12,18,8.80
2018,11,25,12,19,8.80
2018,11,25,12,20,8.80
2018,11,25,12,21,8.80
2018,11,25,12,22,8.80
2018,11,25,12,23,8.80
2018,11,25,12,24,8.80
2018,11,25,12,25,8.80
2018,11,25,12,26,8.80
2018,11,25,12,27,8.80
2018,11,25,12,28,8.80
2018,11,25,12,29,8.80
2018,11,25,12,30,8.80
2018,11,25,12,31,8.80
2018,11,25,12,32,8.80
2018,11,25,12,33,8.80
2018,11,25,12,34,8.80
2018,11,25,12,35,8.80
2018,11,25,12,36,8.80
2018,11,25,12,37,8.80
2018,11,25,12,38,8.80
2018,11,25,12,39,8.80
2018,11,25,12,40,8.80
2018,11,25,12,41,8.80
2018,11,25,12,42,8.80
2018,11,25,12,43,8.80
2018,11,25,12,44,8.80
2018,11,25,12,45,8.80
2018,11,25,12,46,8.80
2018,11,25,12,47,8.80
2018,11,25,12,48,8.80
2018,11,25,12,49,8.80
2018,11,25,12,50,8.80
2018,11,25,12,51,8.70
2018,11,25,12,52,8.70
2018,11,25,12,53,8.70
2018,11,25,12,54,8.70
2018,11,25,12,55,8.70
2018,11,25,12,56,8.70
2018,11,25,12,57,8.80
2018,11,25,12,58,8.80
2018,11,25,12,59,8.80
2018,11,25,13,00,8.80
2018,11,25,13,01,8.80
2018,11,25,13,02,8.80
2018,11,25,13,03,8.80
2018,11,25,13,04,8.80
2018,11,25,13,05,8.80
2018,11,25,13,06,8.80
2018,11,25,13,07,8.80
2018,11,25,13,08,8.80
2018,11,25,13,09,8.80
2018,11,25,13,10,8.80
2018,11,25,13,11,8.80
2018,11,25,13,12,8.70
2018,11,25,13,13,8.70
2018,11,25,13,14,8.70
2018,11,25,13,15,8.70
2018,11,25,13,16,8.70
2018,11,25,13,17,8.70
2018,11,25,13,18,8.70
2018,11,25,13,19,8.70
2018,11,25,13,20,8.70
2018,11,25,13,21,8.70
2018,11,25,13,22,8.70
2018,11,25,13,23,8.70
2018,11,25,13,24,8.70
2018,11,25,13,25,8.70
2018,11,25,13,26,8.60
2018,11,25,13,27,8.60
2018,11,25,13,28,8.60
2018,11,25,13,29,8.60
2018,11,25,13,30,8.60
2018,11,25,13,31,8.60
2018,11,25,13,32,8.60
2018,11,25,13,33,8.60
2018,11,25,13,34,8.60
2018,11,25,13,35,8.60
2018,11,25,13,36,8.60
2018,11,25,13,37,8.60
2018,11,25,13,38,8.60
2018,11,25,13,39,8.60
2018,11,25,13,40,8.60
2018,11,25,13,41,8.60
2018,11,25,13,42,8.60
2018,11,25,13,43,8.60
2018,11,25,13,44,8.60
2018,11,25,13,45,8.60
2018,11,25,13,46,8.60
2018,11,25,13,47,8.60
2018,11,25,13,48,8.60
2018,11,25,13,49,8.60
2018,11,25,13,50,8.60
2018,11,25,13,51,8.60
2018,11,25,13,52,8.60
2018,11,25,13,53,8.60
2018,11,25,13,54,8.60
2018,11,25,13,55,8.60
2018,11,25,13,56,8.60
2018,11,25,13,57,8.60
2018,11,25,13,58,8.60
2018,11,25,13,59,8.60
2018,11,25,14,00,8.60
2018,11,25,14,01,8.60
2018,11,25,14,02,8.50
2018,11,25,14,03,8.50
2018,11,25,14,04,8.50
2018,11,25,14,05,8.50
2018,11,25,14,06,8.50
2018,11,25,14,07,8.50
2018,11,25,14,08,8.50
2018,11,25,14,09,8.50
2018,11,25,14,10,8.50
2018,11,25,14,11,8.50
2018,11,25,14,12,8.50
2018,11,25,14,13,8.50
2018,11,25,14,14,8.50
2018,11,25,14,15,8.50
2018,11,25,14,16,8.50
2018,11,25,14,17,8.50
2018,11,25,14,18,8.40
2018,11,25,14,19,8.40
2018,11,25,14,20,8.40
2018,11,25,14,21,8.40
2018,11,25,14,22,8.40
2018,11,25,14,23,8.40
2018,11,25,14,24,8.40
2018,11,25,14,25,8.40
2018,11,25,14,26,8.40
2018,11,25,14,27,8.40
2018,11,25,14,28,8.40
2018,11,25,14,29,8.40
2018,11,25,14,30,8.40
2018,11,25,14,31,8.30
2018,11,25,14,32,8.30
2018,11,25,14,33,8.30
2018,11,25,14,34,8.30
2018,11,25,14,35,8.30
2018,11,25,14,36,8.30
2018,11,25,14,37,8.30
2018,11,25,14,38,8.30
2018,11,25,14,39,8.30
2018,11,25,14,40,8.30
2018,11,25,14,41,8.30
2018,11,25,14,42,8.30
2018,11,25,14,43,8.30
2018,11,25,14,44,8.30
2018,11,25,14,45,8.30
2018,11,25,14,46,8.20
2018,11,25,14,47,8.20
2018,11,25,14,48,8.20
2018,11,25,14,49,8.20
2018,11,25,14,50,8.20
2018,11,25,14,51,8.20
2018,11,25,14,52,8.20
2018,11,25,14,53,8.20
2018,11,25,14,54,8.20
2018,11,25,14,55,8.20
2018,11,25,14,56,8.20
2018,11,25,14,57,8.20
2018,11,25,14,58,8.20
2018,11,25,14,59,8.20
2018,11,25,15,00,8.20
2018,11,25,15,01,8.20
2018,11,25,15,02,8.20
2018,11,25,15,03,8.20
2018,11,25,15,04,8.20
2018,11,25,15,05,8.20
2018,11,25,15,06,8.20
2018,11,25,15,07,8.20
2018,11,25,15,08,8.20
2018,11,25,15,09,8.20
2018,11,25,15,10,8.20
2018,11,25,15,11,8.20
2018,11,25,15,12,8.20
2018,11,25,15,13,8.20
2018,11,25,15,14,8.20
2018,11,25,15,15,8.20
2018,11,25,15,16,8.20
2018,11,25,15,17,8.20
2018,11,25,15,18,8.20
2018,11,25,15,19,8.20
2018,11,25,15,20,8.20
2018,11,25,15,21,8.20
2018,11,25,15,22,8.20
2018,11,25,15,23,8.20
2018,11,25,15,24,8.20
2018,11,25,15,25,8.20
2018,11,25,15,26,8.20
2018,11,25,15,27,8.20
2018,11,25,15,28,8.20
2018,11,25,15,29,8.20
2018,11,25,15,30,8.20
2018,11,25,15,31,8.20
2018,11,25,15,32,8.20
2018,11,25,15,33,8.20
2018,11,25,15,34,8.20
2018,11,25,15,35,8.20
2018,11,25,15,36,8.20
2018,11,25,15,37,8.20
2018,11,25,15,38,8.20
2018,11,25,15,39,8.20
2018,11,25,15,40,8.20
2018,11,25,15,41,8.20
2018,11,25,15,42,8.20
2018,11,25,15,43,8.20
2018,11,25,15,44,8.20
2018,11,25,15,45,8.20
2018,11,25,15,46,8.20
2018,11,25,15,47,8.20
2018,11,25,15,48,8.20
2018,11,25,15,49,8.20
2018,11,25,15,50,8.20
2018,11,25,15,51,8.20
2018,11,25,15,52,8.20
2018,11,25,15,53,8.20
2018,11,25,15,54,8.20
2018,11,25,15,55,8.20
2018,11,25,15,56,8.20
2018,11,25,15,57,8.20
2018,11,25,15,58,8.10
2018,11,25,15,59,8.10
2018,11,25,16,00,8.10
2018,11,25,16,01,8.10
2018,11,25,16,02,8.10
2018,11,25,16,03,8.10
2018,11,25,16,04,8.10
2018,11,25,16,05,8.00
2018,11,25,16,06,8.00
2018,11,25,16,07,8.00
2018,11,25,16,08,8.00
2018,11,25,16,09,8.00
2018,11,25,16,10,8.00
2018,11,25,16,11,8.00
2018,11,25,16,12,8.00
2018,11,25,16,13,8.00
2018,11,25,16,14,8.00
2018,11,25,16,15,8.00
2018,11,25,16,16,7.90
2018,11,25,16,17,7.90
2018,11,25,16,18,7.90
2018,11,25,16,19,7.90
2018,11,25,16,20,8.00
2018,11,25,16,21,8.00
2018,11,25,16,22,8.00
2018,11,25,16,23,8.00
2018,11,25,16,24,8.00
2018,11,25,16,25,8.00
2018,11,25,16,26,8.00
2018,11,25,16,27,8.00
2018,11,25,16,28,8.00
2018,11,25,16,29,8.00
2018,11,25,16,30,8.00
2018,11,25,16,31,8.00
2018,11,25,16,32,8.00
2018,11,25,16,33,8.00
2018,11,25,16,34,8.00
2018,11,25,16,35,8.00
2018,11,25,16,36,8.00
2018,11,25,16,37,8.00
2018,11,25,16,38,8.00
2018,11,25,16,39,8.00
2018,11,25,16,40,8.00
2018,11,25,16,41,8.00
2018,11,25,16,42,8.00
2018,11,25,16,43,8.00
2018,11,25,16,44,8.00
2018,11,25,16,45,8.00
2018,11,25,16,46,8.00
2018,11,25,16,47,8.00
2018,11,25,16,48,8.00
2018,11,25,16,49,8.00
2018,11,25,16,50,8.00
2018,11,25,16,51,8.00
2018,11,25,16,52,7.90
2018,11,25,16,53,7.90
2018,11,25,16,54,7.90
2018,11,25,16,55,7.90
2018,11,25,16,56,7.90
2018,11,25,16,57,7.90
2018,11,25,16,58,7.90
2018,11,25,16,59,7.90
2018,11,25,17,00,7.90
2018,11,25,17,01,7.90
2018,11,25,17,02,7.90
2018,11,25,17,03,7.90
2018,11,25,17,04,7.90
2018,11,25,17,05,7.90
2018,11,25,17,06,7.90
2018,11,25,17,07,7.90
2018,11,25,17,08,7.90
2018,11,25,17,09,7.90
2018,11,25,17,10,7.90
2018,11,25,17,11,7.90
2018,11,25,17,12,7.90
2018,11,25,17,13,7.90
2018,11,25,17,14,7.90
2018,11,25,17,15,7.90
2018,11,25,17,16,7.90
2018,11,25,17,17,7.90
2018,11,25,17,18,7.90
2018,11,25,17,19,7.90
2018,11,25,17,20,8.00
2018,11,25,17,21,8.00
2018,11,25,17,22,8.00
2018,11,25,17,23,8.00
2018,11,25,17,24,8.00
2018,11,25,17,25,8.00
2018,11,25,17,26,8.00
2018,11,25,17,27,8.10
2018,11,25,17,28,8.10
2018,11,25,17,29,8.10
2018,11,25,17,30,8.10
2018,11,25,17,31,8.10
2018,11,25,17,32,8.10
2018,11,25,17,33,8.10
2018,11,25,17,34,8.20
2018,11,25,17,35,8.20
2018,11,25,17,36,8.20
2018,11,25,17,37,8.20
2018,11,25,17,38,8.20
2018,11,25,17,39,8.20
2018,11,25,17,40,8.20
2018,11,25,17,41,8.20
2018,11,25,17,42,8.20
2018,11,25,17,43,8.20
2018,11,25,17,44,8.20
2018,11,25,17,45,8.20
2018,11,25,17,46,8.20
2018,11,25,17,47,8.20
2018,11,25,17,48,8.20
2018,11,25,17,49,8.20
2018,11,25,17,50,8.20
2018,11,25,17,51,8.20
2018,11,25,17,52,8.20
2018,11,25,17,53,8.20
2018,11,25,17,54,8.20
2018,11,25,17,55,8.20
2018,11,25,17,56,8.20
2018,11,25,17,57,8.20
2018,11,25,17,58,8.20
2018,11,25,17,59,8.20
2018,11,25,18,00,8.20
2018,11,25,18,01,8.20
2018,11,25,18,02,8.20
2018,11,25,18,03,8.20
2018,11,25,18,04,8.20
2018,11,25,18,05,8.20
2018,11,25,18,06,8.20
2018,11,25,18,07,8.20
2018,11,25,18,08,8.20
2018,11,25,18,09,8.20
2018,11,25,18,10,8.20
2018,11,25,18,11,8.20
2018,11,25,18,12,8.20
2018,11,25,18,13,8.20
2018,11,25,18,14,8.20
2018,11,25,18,15,8.20
2018,11,25,18,16,8.20
2018,11,25,18,17,8.20
2018,11,25,18,18,8.20
2018,11,25,18,19,8.20
2018,11,25,18,20,8.20
2018,11,25,18,21,8.20
2018,11,25,18,22,8.20
2018,11,25,18,23,8.20
2018,11,25,18,24,8.20
2018,11,25,18,25,8.20
2018,11,25,18,26,8.20
2018,11,25,18,27,8.10
2018,11,25,18,28,8.10
2018,11,25,18,29,8.10
2018,11,25,18,30,8.10
2018,11,25,18,31,8.10
2018,11,25,18,32,8.10
2018,11,25,18,33,8.10
2018,11,25,18,34,8.10
2018,11,25,18,35,8.10
2018,11,25,18,36,8.10
2018,11,25,18,37,8.10
2018,11,25,18,38,8.10
2018,11,25,18,39,8.10
2018,11,25,18,40,8.10
2018,11,25,18,41,8.10
2018,11,25,18,42,8.10
2018,11,25,18,43,8.10
2018,11,25,18,44,8.10
2018,11,25,18,45,8.10
2018,11,25,18,46,8.10
2018,11,25,18,47,8.20
2018,11,25,18,48,8.20
2018,11,25,18,49,8.20
2018,11,25,18,50,8.20
2018,11,25,18,51,8.20
2018,11,25,18,52,8.20
2018,11,25,18,53,8.20
2018,11,25,18,54,8.20
2018,11,25,18,55,8.20
2018,11,25,18,56,8.20
2018,11,25,18,57,8.20
2018,11,25,18,58,8.20
2018,11,25,18,59,8.20
2018,11,25,19,00,8.20
2018,11,25,19,01,8.20
2018,11,25,19,02,8.20
2018,11,25,19,03,8.20
2018,11,25,19,04,8.20
2018,11,25,19,05,8.20
2018,11,25,19,06,8.20
2018,11,25,19,07,8.20
2018,11,25,19,08,8.20
2018,11,25,19,09,8.20
2018,11,25,19,10,8.20
2018,11,25,19,11,8.20
2018,11,25,19,12,8.30
2018,11,25,19,13,8.30
2018,11,25,19,14,8.30
2018,11,25,19,15,8.30
2018,11,25,19,16,8.30
2018,11,25,19,17,8.30
2018,11,25,19,18,8.30
2018,11,25,19,19,8.30
2018,11,25,19,20,8.30
2018,11,25,19,21,8.30
2018,11,25,19,22,8.30
2018,11,25,19,23,8.30
2018,11,25,19,24,8.30
2018,11,25,19,25,8.30
2018,11,25,19,26,8.30
2018,11,25,19,27,8.30
2018,11,25,19,28,8.30
2018,11,25,19,29,8.30
2018,11,25,19,30,8.30
2018,11,25,19,31,8.30
2018,11,25,19,32,8.30
2018,11,25,19,33,8.30
2018,11,25,19,34,8.30
2018,11,25,19,35,8.30
2018,11,25,19,36,8.30
2018,11,25,19,37,8.30
2018,11,25,19,38,8.30
2018,11,25,19,39,8.30
2018,11,25,19,40,8.30
2018,11,25,19,41,8.30
2018,11,25,19,42,8.30
2018,11,25,19,43,8.30
2018,11,25,19,44,8.30
2018,11,25,19,45,8.30
2018,11,25,19,46,8.30
2018,11,25,19,47,8.30
2018,11,25,19,48,8.30
2018,11,25,19,49,8.30
2018,11,25,19,50,8.30
2018,11,25,19,51,8.30
2018,11,25,19,52,8.30
2018,11,25,19,53,8.30
2018,11,25,19,54,8.30
2018,11,25,19,55,8.40
2018,11,25,19,56,8.40
2018,11,25,19,57,8.40
2018,11,25,19,58,8.40
2018,11,25,19,59,8.40
2018,11,25,20,00,8.40
2018,11,25,20,01,8.40
2018,11,25,20,02,8.40
2018,11,25,20,03,8.50
2018,11,25,20,04,8.40
2018,11,25,20,05,8.50
2018,11,25,20,06,8.50
2018,11,25,20,07,8.50
2018,11,25,20,08,8.50
2018,11,25,20,09,8.50
2018,11,25,20,10,8.50
2018,11,25,20,11,8.50
2018,11,25,20,12,8.60
2018,11,25,20,13,8.50
2018,11,25,20,14,8.60
2018,11,25,20,15,8.60
2018,11,25,20,16,8.60
2018,11,25,20,17,8.60
2018,11,25,20,18,8.60
2018,11,25,20,19,8.60
2018,11,25,20,20,8.60
2018,11,25,20,21,8.60
2018,11,25,20,22,8.60
2018,11,25,20,23,8.60
2018,11,25,20,24,8.60
2018,11,25,20,25,8.60
2018,11,25,20,26,8.60
2018,11,25,20,27,8.60
2018,11,25,20,28,8.60
2018,11,25,20,29,8.60
2018,11,25,20,30,8.60
2018,11,25,20,31,8.60
2018,11,25,20,32,8.60
2018,11,25,20,33,8.60
2018,11,25,20,34,8.60
2018,11,25,20,35,8.60
2018,11,25,20,36,8.60
2018,11,25,20,37,8.60
2018,11,25,20,38,8.60
2018,11,25,20,39,8.60
2018,11,25,20,40,8.60
2018,11,25,20,41,8.60
2018,11,25,20,42,8.70
2018,11,25,20,43,8.70
2018,11,25,20,44,8.70
2018,11,25,20,45,8.70
2018,11,25,20,46,8.70
2018,11,25,20,47,8.70
2018,11,25,20,48,8.80
2018,11,25,20,49,8.80
2018,11,25,20,50,8.80
2018,11,25,20,51,8.80
2018,11,25,20,52,8.80
2018,11,25,20,53,8.90
2018,11,25,20,54,8.90
2018,11,25,20,55,8.90
2018,11,25,20,56,8.90
2018,11,25,20,57,9.00
2018,11,25,20,58,9.00
2018,11,25,20,59,9.00
2018,11,25,21,00,9.10
2018,11,25,21,01,9.10
2018,11,25,21,02,9.10
2018,11,25,21,03,9.10
2018,11,25,21,04,9.10
2018,11,25,21,05,9.10
2018,11,25,21,06,9.10
2018,11,25,21,07,9.10
2018,11,25,21,08,9.10
2018,11,25,21,09,9.20
2018,11,25,21,10,9.20
2018,11,25,21,11,9.20
2018,11,25,21,12,9.20
2018,11,25,21,13,9.20
2018,11,25,21,14,9.20
2018,11,25,21,15,9.20
2018,11,25,21,16,9.20
2018,11,25,21,17,9.20
2018,11,25,21,18,9.20
2018,11,25,21,19,9.20
2018,11,25,21,20,9.20
2018,11,25,21,21,9.20
2018,11,25,21,22,9.20
2018,11,25,21,23,9.20
2018,11,25,21,24,9.20
2018,11,25,21,25,9.20
2018,11,25,21,26,9.20
2018,11,25,21,27,9.20
2018,11,25,21,28,9.20
2018,11,25,21,29,9.20
2018,11,25,21,30,9.20
2018,11,25,21,31,9.20
2018,11,25,21,32,9.20
2018,11,25,21,33,9.20
2018,11,25,21,34,9.20
2018,11,25,21,35,9.20
2018,11,25,21,36,9.20
2018,11,25,21,37,9.20
2018,11,25,21,38,9.20
2018,11,25,21,39,9.20
2018,11,25,21,40,9.20
2018,11,25,21,41,9.20
2018,11,25,21,42,9.20
2018,11,25,21,43,9.20
2018,11,25,21,44,9.20
2018,11,25,21,45,9.20
2018,11,25,21,46,9.20
2018,11,25,21,47,9.20
2018,11,25,21,48,9.20
2018,11,25,21,49,9.20
2018,11,25,21,50,9.20
2018,11,25,21,51,9.20
2018,11,25,21,52,9.20
2018,11,25,21,53,9.20
2018,11,25,21,54,9.20
2018,11,25,21,55,9.20
2018,11,25,21,56,9.20
2018,11,25,21,57,9.20
2018,11,25,21,58,9.20
2018,11,25,21,59,9.20
2018,11,25,22,00,9.20
2018,11,25,22,01,9.20
2018,11,25,22,02,9.20
2018,11,25,22,03,9.20
2018,11,25,22,04,9.20
2018,11,25,22,05,9.30
2018,11,25,22,06,9.30
2018,11,25,22,07,9.30
2018,11,25,22,08,9.30
2018,11,25,22,09,9.30
2018,11,25,22,10,9.30
2018,11,25,22,11,9.30
2018,11,25,22,12,9.30
2018,11,25,22,13,9.30
2018,11,25,22,14,9.30
2018,11,25,22,15,9.30
2018,11,25,22,16,9.30
2018,11,25,22,17,9.30
2018,11,25,22,18,9.30
2018,11,25,22,19,9.30
2018,11,25,22,20,9.30
2018,11,25,22,21,9.30
2018,11,25,22,22,9.30
2018,11,25,22,23,9.30
2018,11,25,22,24,9.30
2018,11,25,22,25,9.30
2018,11,25,22,26,9.40
2018,11,25,22,27,9.40
2018,11,25,22,28,9.40
2018,11,25,22,29,9.40
2018,11,25,22,30,9.40
2018,11,25,22,31,9.40
2018,11,25,22,32,9.40
2018,11,25,22,33,9.40
2018,11,25,22,34,9.40
2018,11,25,22,35,9.40
2018,11,25,22,36,9.40
2018,11,25,22,37,9.40
2018,11,25,22,38,9.40
2018,11,25,22,39,9.40
2018,11,25,22,40,9.40
2018,11,25,22,41,9.40
2018,11,25,22,42,9.40
2018,11,25,22,43,9.40
2018,11,25,22,44,9.40
2018,11,25,22,45,9.40
2018,11,25,22,46,9.40
2018,11,25,22,47,9.40
2018,11,25,22,48,9.40
2018,11,25,22,49,9.40
2018,11,25,22,50,9.50
2018,11,25,22,51,9.50
2018,11,25,22,52,9.40
2018,11,25,22,53,9.50
2018,11,25,22,54,9.50
2018,11,25,22,55,9.50
2018,11,25,22,56,9.50
2018,11,25,22,57,9.50
2018,11,25,22,58,9.50
2018,11,25,22,59,9.50
2018,11,25,23,00,9.50
2018,11,25,23,01,9.50
2018,11,25,23,02,9.50
2018,11,25,23,03,9.50
2018,11,25,23,04,9.60
2018,11,25,23,05,9.50
2018,11,25,23,06,9.50
2018,11,25,23,07,9.60
2018,11,25,23,08,9.50
2018,11,25,23,09,9.50
2018,11,25,23,10,9.60
2018,11,25,23,11,9.60
2018,11,25,23,12,9.60
2018,11,25,23,13,9.60
2018,11,25,23,14,9.60
2018,11,25,23,15,9.60
2018,11,25,23,16,9.60
2018,11,25,23,17,9.60
2018,11,25,23,18,9.60
2018,11,25,23,19,9.60
2018,11,25,23,20,9.60
2018,11,25,23,21,9.70
2018,11,25,23,22,9.70
2018,11,25,23,23,9.70
2018,11,25,23,24,9.70
2018,11,25,23,25,9.70
2018,11,25,23,26,9.70
2018,11,25,23,27,9.70
2018,11,25,23,28,9.70
2018,11,25,23,29,9.70
2018,11,25,23,30,9.70
2018,11,25,23,31,9.80
2018,11,25,23,32,9.80
2018,11,25,23,33,9.80
2018,11,25,23,34,9.80
2018,11,25,23,35,9.80
2018,11,25,23,36,9.80
2018,11,25,23,37,9.80
2018,11,25,23,38,9.80
2018,11,25,23,39,9.70
2018,11,25,23,40,9.80
2018,11,25,23,41,9.80
2018,11,25,23,42,9.80
2018,11,25,23,43,9.80
2018,11,25,23,44,9.80
2018,11,25,23,45,9.80
2018,11,25,23,46,9.80
2018,11,25,23,47,9.80
2018,11,25,23,48,9.80
2018,11,25,23,49,9.80
2018,11,25,23,50,9.80
2018,11,25,23,51,9.90
2018,11,25,23,52,9.90
2018,11,25,23,53,9.90
2018,11,25,23,54,9.90
2018,11,25,23,55,9.90
2018,11,25,23,56,10.00
2018,11,25,23,57,10.00
2018,11,25,23,58,10.00
2018,11,25,23,59,10.10
